sat.trackr.live / text

‹ back to catalog

STARLINK-11720 [DTC]

NORAD 64131 · 2025-111J

PAYLOAD ACTIVE UNKNOWN

§ Identity

Operator
Country
US
Launch date
2025-05-24
Launch site
AFETR
Launch vehicle
Mass (kg)
RCS (m²)

Purposes: comms

External: N2YO · Heavens-Above · Gunter

§ Orbital elements

Epoch: 2026-09-20T23:14:02.035104Z

Period
91.67 min
Inclination
43.0007°
Eccentricity
0.0002111
Mean motion
15.70862345 rev/d
Perigee alt
355.0 km
Apogee alt
357.9 km
Semi-major
6,734.6 km
B*
8.2420e-4
RAAN
236.5678°
Arg perigee
254.8359°
Mean anomaly
105.2275°
Rev number
7,730

§ Raw data

STARLINK-11720 [DTC]1 64131U 25111J   26263.96807911  .00106780  00000+0  82420-3 0  99952 64131  43.0007 236.5678 0002111 254.8359 105.2275 15.70862345 77309

JSON: /api/v1/satellites/64131 · /tle

For live sub-satellite position, see the globe view (requires WebGL).

§ Visibility from observer

Set your observer location to see the next 7 days of passes ≥ 10°. The values pass through the URL so the page stays shareable.

No JS? Fill the form by hand. The geolocation button needs JavaScript.